Time,TemperatureF,DewpointF,PressureIn,WindDirection,WindDirectionDegrees,WindSpeedMPH,WindSpeedGustMPH,Humidity,HourlyPrecipIn,Conditions,Clouds,dailyrainin,SoftwareType,DateUTC
2013-10-10 00:24:00,48.0,47.0,30.24,North,360,0.0,0.0,97,0.00,,,0.00,,2013-10-10 04:24:00,
2013-10-10 00:49:00,47.0,46.0,30.26,North,360,0.0,0.0,96,0.00,,,0.00,,2013-10-10 04:49:00,
2013-10-10 01:23:00,45.0,45.0,30.24,North,360,0.0,0.0,100,0.00,,,0.00,,2013-10-10 05:23:00,
2013-10-10 01:43:00,44.0,44.0,30.24,North,360,0.0,0.0,100,0.00,,,0.00,,2013-10-10 05:43:00,
2013-10-10 01:53:00,45.0,45.0,30.24,NNE,22,0.0,0.0,100,0.00,,,0.00,,2013-10-10 05:53:00,
2013-10-10 02:13:00,45.0,45.0,30.24,NNE,22,0.0,0.0,100,0.00,,,0.00,,2013-10-10 06:13:00,
2013-10-10 02:22:00,44.0,44.0,30.24,NNE,22,0.0,0.0,100,0.00,,,0.00,,2013-10-10 06:22:00,
2013-10-10 02:42:00,43.0,43.0,30.24,NNE,22,0.0,0.0,100,0.00,,,0.00,,2013-10-10 06:42:00,
2013-10-10 02:53:00,44.0,44.0,30.26,NNE,22,0.0,0.0,100,0.00,,,0.00,,2013-10-10 06:53:00,
2013-10-10 03:11:00,44.0,44.0,30.26,NNE,22,0.0,0.0,100,0.00,,,0.00,,2013-10-10 07:11:00,
2013-10-10 03:21:00,44.0,44.0,30.25,NNE,22,0.0,0.0,100,0.00,,,0.00,,2013-10-10 07:21:00,
2013-10-10 03:42:00,43.0,43.0,30.24,NNE,22,0.0,0.0,100,0.00,,,0.00,,2013-10-10 07:42:00,
2013-10-10 03:52:00,43.0,43.0,30.26,NNE,22,0.0,0.0,100,0.00,,,0.00,,2013-10-10 07:52:00,
2013-10-10 04:11:00,42.0,42.0,30.25,NNE,22,0.0,0.0,100,0.00,,,0.00,,2013-10-10 08:11:00,
2013-10-10 04:22:00,42.0,42.0,30.25,NNE,22,0.0,0.0,100,0.00,,,0.00,,2013-10-10 08:22:00,
2013-10-10 04:43:00,42.0,42.0,30.24,NNE,22,0.0,0.0,100,0.00,,,0.00,,2013-10-10 08:43:00,
2013-10-10 04:52:00,42.0,42.0,30.25,NNE,22,0.0,0.0,100,0.00,,,0.00,,2013-10-10 08:52:00,
2013-10-10 05:22:00,42.0,42.0,30.25,NNE,22,0.0,0.0,100,0.00,,,0.00,,2013-10-10 09:22:00,
2013-10-10 05:43:00,42.0,42.0,30.25,NNE,22,0.0,0.0,100,0.00,,,0.00,,2013-10-10 09:43:00,
2013-10-10 05:53:00,41.0,41.0,30.25,NNE,22,0.0,0.0,100,0.00,,,0.00,,2013-10-10 09:53:00,
2013-10-10 06:23:00,41.0,41.0,30.25,NNE,22,0.0,0.0,100,0.00,,,0.00,,2013-10-10 10:23:00,
2013-10-10 06:42:00,41.0,41.0,30.25,NNE,22,0.0,0.0,100,0.00,,,0.00,,2013-10-10 10:42:00,
2013-10-10 06:53:00,40.0,40.0,30.25,NNE,22,0.0,0.0,100,0.00,,,0.00,,2013-10-10 10:53:00,
2013-10-10 07:22:00,40.0,40.0,30.27,NNE,22,0.0,0.0,100,0.00,,,0.00,,2013-10-10 11:22:00,
2013-10-10 07:42:00,40.0,40.0,30.27,NNE,22,0.0,0.0,100,0.00,,,0.00,,2013-10-10 11:42:00,
2013-10-10 07:57:00,40.0,40.0,30.26,NNE,22,0.0,0.0,100,0.00,,,0.00,,2013-10-10 11:57:00,
2013-10-10 08:12:00,40.0,40.0,30.26,NNE,22,0.0,0.0,100,0.00,,,0.00,,2013-10-10 12:12:00,
2013-10-10 08:21:00,40.0,40.0,30.27,NNE,22,0.0,0.0,100,0.00,,,0.00,,2013-10-10 12:21:00,
2013-10-10 08:42:00,41.0,41.0,30.27,NNE,22,0.0,0.0,100,0.00,,,0.00,,2013-10-10 12:42:00,
2013-10-10 08:52:00,43.0,43.0,30.24,NNE,22,0.0,0.0,100,0.00,,,0.00,,2013-10-10 12:52:00,
2013-10-10 09:12:00,47.0,47.0,30.23,NNE,22,0.0,0.0,100,0.00,,,0.00,,2013-10-10 13:12:00,
2013-10-10 09:21:00,48.0,48.0,30.22,NNE,22,0.0,0.0,100,0.00,,,0.00,,2013-10-10 13:21:00,
2013-10-10 09:42:00,50.0,50.0,30.21,NNE,22,0.0,0.0,100,0.00,,,0.00,,2013-10-10 13:42:00,
2013-10-10 09:52:00,52.0,52.0,30.19,East,90,0.0,0.0,100,0.00,,,0.00,,2013-10-10 13:52:00,
2013-10-10 10:11:00,53.0,53.0,30.20,ENE,67,0.0,4.0,100,0.00,,,0.00,,2013-10-10 14:11:00,
2013-10-10 10:21:00,55.0,55.0,30.18,ENE,67,1.0,2.0,100,0.00,,,0.00,,2013-10-10 14:21:00,
2013-10-10 12:23:00,69.0,52.0,30.15,East,90,1.0,2.0,55,0.00,,,0.00,,2013-10-10 16:23:00,
2013-10-10 12:42:00,70.0,50.0,30.15,South,180,0.0,0.0,50,0.00,,,0.00,,2013-10-10 16:42:00,
2013-10-10 12:53:00,72.0,51.0,30.14,SE,135,0.0,0.0,47,0.00,,,0.00,,2013-10-10 16:53:00,
2013-10-10 13:12:00,70.0,50.0,30.14,East,90,0.0,5.0,49,0.00,,,0.00,,2013-10-10 17:12:00,
2013-10-10 13:23:00,70.0,49.0,30.13,East,90,2.0,7.0,48,0.00,,,0.00,,2013-10-10 17:23:00,
2013-10-10 13:42:00,72.0,49.0,30.14,SW,225,0.0,0.0,45,0.00,,,0.00,,2013-10-10 17:42:00,
2013-10-10 13:52:00,73.0,50.0,30.12,East,90,0.0,0.0,44,0.00,,,0.00,,2013-10-10 17:52:00,
2013-10-10 14:12:00,72.0,48.0,30.12,West,270,0.0,0.0,43,0.00,,,0.00,,2013-10-10 18:12:00,
2013-10-10 14:21:00,74.0,49.0,30.12,SSW,202,0.0,0.0,42,0.00,,,0.00,,2013-10-10 18:21:00,
2013-10-10 14:42:00,73.0,49.0,30.10,ESE,112,0.0,0.0,42,0.00,,,0.00,,2013-10-10 18:42:00,
2013-10-10 14:52:00,73.0,48.0,30.09,NE,45,0.0,0.0,41,0.00,,,0.00,,2013-10-10 18:52:00,
2013-10-10 15:11:00,74.0,47.0,30.09,East,90,0.0,0.0,39,0.00,,,0.00,,2013-10-10 19:11:00,
2013-10-10 15:22:00,74.0,47.0,30.08,East,90,0.0,0.0,39,0.00,,,0.00,,2013-10-10 19:22:00,
2013-10-10 15:42:00,76.0,47.0,30.08,NE,45,0.0,0.0,36,0.00,,,0.00,,2013-10-10 19:42:00,
2013-10-10 15:52:00,76.0,47.0,30.07,SSW,202,0.0,0.0,36,0.00,,,0.00,,2013-10-10 19:52:00,
2013-10-10 16:22:00,74.0,46.0,30.06,ESE,112,0.0,0.0,37,0.00,,,0.00,,2013-10-10 20:22:00,
2013-10-10 16:42:00,73.0,46.0,30.05,NE,45,0.0,0.0,38,0.00,,,0.00,,2013-10-10 20:42:00,
2013-10-10 16:52:00,76.0,46.0,30.05,East,90,0.0,0.0,34,0.00,,,0.00,,2013-10-10 20:52:00,
2013-10-10 17:22:00,76.0,47.0,30.05,SW,225,0.0,4.0,36,0.00,,,0.00,,2013-10-10 21:22:00,
2013-10-10 17:44:00,75.0,45.0,30.03,West,270,0.0,0.0,35,0.00,,,0.00,,2013-10-10 21:44:00,
2013-10-10 17:54:00,74.0,46.0,30.03,East,90,2.0,5.0,37,0.00,,,0.00,,2013-10-10 21:54:00,
2013-10-10 18:24:00,71.0,45.0,30.05,East,90,1.0,0.0,39,0.00,,,0.00,,2013-10-10 22:24:00,
2013-10-10 18:43:00,69.0,44.0,30.07,East,90,0.0,0.0,40,0.00,,,0.00,,2013-10-10 22:43:00,
2013-10-10 18:53:00,68.0,45.0,30.09,ESE,112,0.0,0.0,43,0.00,,,0.00,,2013-10-10 22:53:00,
2013-10-10 19:23:00,63.0,45.0,30.11,ESE,112,0.0,0.0,51,0.00,,,0.00,,2013-10-10 23:23:00,
2013-10-10 20:42:00,55.0,46.0,30.14,ESE,112,0.0,0.0,72,0.00,,,0.00,,2013-10-11 00:42:00,
2013-10-10 20:52:00,53.0,45.0,30.16,ESE,112,0.0,0.0,75,0.00,,,0.00,,2013-10-11 00:52:00,
2013-10-10 21:12:00,52.0,47.0,30.16,ESE,112,0.0,0.0,83,0.00,,,0.00,,2013-10-11 01:12:00,
2013-10-10 21:22:00,52.0,49.0,30.15,ESE,112,0.0,0.0,89,0.00,,,0.00,,2013-10-11 01:22:00,
2013-10-10 21:42:00,51.0,48.0,30.16,ESE,112,0.0,0.0,88,0.00,,,0.00,,2013-10-11 01:42:00,
2013-10-10 21:52:00,50.0,47.0,30.16,ESE,112,0.0,0.0,89,0.00,,,0.00,,2013-10-11 01:52:00,
2013-10-10 22:22:00,49.0,47.0,30.16,ESE,112,0.0,0.0,92,0.00,,,0.00,,2013-10-11 02:22:00,
2013-10-10 22:42:00,48.0,46.0,30.16,ESE,112,0.0,0.0,94,0.00,,,0.00,,2013-10-11 02:42:00,
2013-10-10 22:52:00,49.0,47.0,30.16,ESE,112,0.0,0.0,94,0.00,,,0.00,,2013-10-11 02:52:00,
2013-10-10 23:23:00,47.0,46.0,30.18,ESE,112,0.0,0.0,98,0.00,,,0.00,,2013-10-11 03:23:00,
2013-10-10 23:44:00,46.0,46.0,30.16,ESE,112,0.0,0.0,100,0.00,,,0.00,,2013-10-11 03:44:00,
2013-10-10 23:54:00,45.0,45.0,30.16,ESE,112,0.0,0.0,100,0.00,,,0.00,,2013-10-11 03:54:00,